This demonstration page uses our WeatherBlox Daily Observations layout. Learn more.

Left ArrowRight Arrow

39.29038, -76.61219

Hourly Observations for December 19, 2020

Temp ( °F °C ) Dew Point ( °F °C ) Humidity (%) Winds ( mph kmh ) Pressure ( in mb ) Visibility ( mi km ) Precip ( " mm )
12:54 am 00:54 Mostly Cloudy 26 -3.3 21 -6.1 81 81 NW 3 6 30.41 1030 10 16 0.00 0.00
1:54 am 01:54 Mostly Cloudy 26 -3.3 20 -6.7 78 78 WNW 3 6 30.42 1030 10 16 0.00 0.00
2:54 am 02:54 Partly Cloudy 26 -3.3 19 -7.2 75 75 Calm 30.42 1030 10 16 0.00 0.00
3:54 am 03:54 Mostly Cloudy 24 -4.4 18 -7.8 77 77 W 5 7 30.43 1031 10 16 0.00 0.00
4:54 am 04:54 Cloudy 24 -4.4 19 -7.2 81 81 WSW 3 6 30.42 1030 10 16 0.00 0.00
5:54 am 05:54 Cloudy 23 -5 18 -7.8 81 81 Calm 30.43 1030 10 16 0.00 0.00
6:54 am 06:54 Mostly Cloudy 24 -4.4 18 -7.8 77 77 Calm 30.43 1030 10 16 0.00 0.00
7:54 am 07:54 Mostly Cloudy 23 -5 18 -7.8 81 81 Calm 30.43 1030 10 16 0.00 0.00
8:54 am 08:54 Mostly Cloudy 26 -3.3 21 -6.1 81 81 Calm 30.44 1031 10 16 0.00 0.00
9:54 am 09:54 Cloudy 30 -1.1 21 -6.1 69 69 Calm 30.44 1031 10 16 0.00 0.00
10:54 am 10:54 Cloudy 31 -0.6 18 -7.8 59 59 Calm 30.42 1030 10 16 0.00 0.00
11:54 am 11:54 Cloudy 34 1.1 20 -6.7 56 56 Calm 30.40 1030 10 16 0.00 0.00
12:54 pm 12:54 Cloudy 35 1.7 22 -5.6 59 59 Calm 30.37 1029 10 16 0.00 0.00
1:54 pm 13:54 Cloudy 36 2.2 22 -5.6 57 57 NW 3 6 30.36 1028 10 16 0.00 0.00
2:54 pm 14:54 Cloudy 36 2.2 23 -5 59 59 ESE 3 6 30.35 1028 10 16 0.00 0.00
3:54 pm 15:54 Cloudy 36 2.2 23 -5 59 59 SSE 3 6 30.36 1028 10 16 0.00 0.00
4:54 pm 16:54 Cloudy 33 0.6 23 -5 66 66 E 6 9 30.35 1028 10 16 0.00 0.00
5:54 pm 17:54 Cloudy 33 0.6 23 -5 66 66 ESE 3 6 30.35 1028 10 16 0.00 0.00
6:54 pm 18:54 Mostly Cloudy 31 -0.6 23 -5 72 72 ESE 5 7 30.32 1027 10 16 0.00 0.00
7:54 pm 19:54 Cloudy 30 -1.1 24 -4.4 79 79 Calm 30.34 1027 10 16 0.00 0.00
8:54 pm 20:54 Mostly Cloudy 32 0 24 -4.4 73 73 ESE 3 6 30.31 1026 10 16 0.00 0.00
9:54 pm 21:54 Mostly Cloudy 32 0 25 -3.9 75 75 Calm 30.30 1026 10 16 0.00 0.00
10:54 pm 22:54 Cloudy 31 -0.6 25 -3.9 79 79 Calm 30.28 1025 10 16 0.00 0.00
11:54 pm 23:54 Cloudy 31 -0.6 26 -3.3 82 82 Calm 30.27 1025 10 16 0.00 0.00

Powered by AerisWeather